Weather in Varkala

India     8°43′51″N   76°43′03″E
temp.,
°C
wind,
m/s
gust,
m/s
humid.,
%
clouds,
%
prec.,
mm/h
press.,
hPa
HPBL,
m
6 december, mon
mon623:30+25n238975 0.1 1012134
02:30+24n239157 0.1 1010140
05:30+24nne239459 0.1 1010110
08:30+26nne238194 0.0 1012258
11:30+30wnw2262100 0.0 1011923
14:30+28wnw3376100 1.3 1008625
17:30+26nw3486100 5.8 1009196
20:30+25n2389100 3.1 1012104
7 december, tue
tue723:30+24nne2291100 3.4 101178
02:30+24nne2291100 0.1 100982
05:30+24ne229113 0.2 101075
08:30+26e228244 0.0 1012205
11:30+29ssw326867 0.1 1012876
14:30+28sw337682 2.9 1009511
17:30+27wsw238168 5.1 1010347
20:30+26wnw128459 0.6 1012258
8 december, wed
wed823:30+25nne118973 1.3 101149
02:30+24ne229293 0.3 100987
05:30+24ene229196 0.8 101081
08:30+26e228393 0.2 1013202
11:30+29s1265100 0.2 1012849
14:30+29ssw326467 0.0 1009876
17:30+27sw2378100 0.0 1009293
20:30+26ne1282100 0.0 101284
9 december, thu
thu923:30+24ene1288100 0.0 101263
02:30+24e2285100 0.0 101070
05:30+24e228398 0.0 101083
08:30+27ese127385 0.1 1013260
11:30+30sw135851 0.1 10111046
14:30+29sw436856 0.0 1009750
17:30+28w237614 0.8 1010273
20:30+25nne228799 1.0 101271
10 december, fri
fri1023:30+24ne2489100 2.1 1012115
02:30+24e23895 0.0 1010117
05:30+23ene228760 0.0 101184
08:30+25ene2277100 0.0 1013148
11:30+30ssw1256100 0.0 1012830
14:30+29sw435936 0.0 1009720
17:30+27sw237245 0.0 1010328
20:30+26ne1176100 0.0 101272